User: anonymous   Login
Location: Wildcat Hills Observatory
(41.6350°N, 103.6812°W)
Time: 19:29:21
(UTC-06:00)
Language:

Cosmos 1634 Rocket - Orbit

View from above orbital plane
View from above orbital plane
View from above satellite
View from above satellite

Ground track
Ground track

The orbit data is extracted from the following two-line orbital elements,

1 15598U 85022B   17086.78429427 +.00000054 +00000-0 +39721-4 0  9995
2 15598 082.9399 167.6164 0021415 340.4608 138.9476 13.76568622609266
Epoch (UTC): 27 March 2017 18:49:23
Eccentricity: 0.0021415
inclination: 82.9399°
perigee height: 960 km
apogee height: 992 km
right ascension of ascending node: 167.6164°
argument of perigee: 340.4608°
revolutions per day: 13.76568622
mean anomaly at epoch: 138.9476°
orbit number at epoch: 60926

The dashed part of the orbit path shows where the satellite is in the earth's shadow,  

DLR